Beaver Falls, PA

11:45 AM EST on November 20, 2019 (GMT -0500)
Beaver County

Weather History for KBVI - September, 2019

Change the Weather History Date:

Thursday, September 12, 2019

  Actual Average Record
Temperature  
Mean Temperature 76 °F -  
Max Temperature 84 °F 73 °F 86 °F (1999)
Min Temperature 67 °F 56 °F 51 °F (2002)
Cooling Degree Days 10    
Growing Degree Days 26 (Base 50)    
Moisture  
Dew Point 66 °F    
Average Humidity 77    
Maximum Humidity 93    
Minimum Humidity 54    
Precipitation  
Precipitation 0.00 in - - ()
Sea Level Pressure  
Sea Level Pressure 30.16 in    
Wind  
Wind Speed 5 mph (NNW)    
Max Wind Speed 13 mph    
Max Gust Speed 25 mph    
Visibility 10 miles    
Events Rain , Thunderstorm    
Averages and records for this station are not official NWS values.
T = Trace of Precipitation, MM = Missing Value Source: NWS Daily Summary

Daily Weather History Graph

Daily Weather History Graph

Search for Another Location

Airport or City:

Astronomy

Sep. 12, 2019 Rise Set
Actual Time 6:59 AM EDT 7:36 PM EDT
Civil Twilight 6:31 AM EDT 8:03 PM EDT
Nautical Twilight 5:58 AM EDT 8:36 PM EDT
Astronomical Twilight 5:25 AM EDT 9:09 PM EDT
Moon 7:20 PM EDT (9/12) 5:16 AM EDT (9/12)
Length of Visible Light 13h 32m
Length of Day
12h 36m
Waxing Gibbous, 98% of the Moon is Illuminated
Sep 12
Waxing Gibbous
Sep 14
Full
Sep 21
Last Quarter
Sep 28
New
Oct 5
First Quarter

Hourly Weather History & Observations

Time (EDT) Temp. Heat Index Dew Point Humidity Pressure Visibility Wind Dir Wind Speed Gust Speed Precip Events Conditions
12:15 AM 72.5 °F - 67.6 °F 85% 30.13 in 10.0 mi NNE 6.9 mph - N/A   Scattered Clouds
12:16 AM 72.5 °F - 67.5 °F 84% 30.13 in 10.0 mi NNE 6.9 mph - N/A   Scattered Clouds
12:35 AM 71.1 °F - 67.3 °F 88% 30.13 in 10.0 mi ENE 3.5 mph - N/A   Scattered Clouds
12:55 AM 70.7 °F - 67.5 °F 89% 30.13 in 10.0 mi Calm Calm - N/A   Scattered Clouds
1:15 AM 70.5 °F - 67.5 °F 90% 30.12 in 10.0 mi Calm Calm - N/A   Clear
1:16 AM 70.5 °F - 67.3 °F 89% 30.12 in 10.0 mi Calm Calm - N/A   Clear
1:35 AM 70.2 °F - 67.3 °F 91% 30.11 in 10.0 mi East 3.5 mph - N/A   Clear
1:55 AM 69.8 °F - 66.9 °F 91% 30.11 in 10.0 mi SSE 3.5 mph - N/A   Clear
2:15 AM 69.3 °F - 66.6 °F 91% 30.11 in 7.0 mi SE 3.5 mph - N/A   Clear
2:16 AM 69.3 °F - 66.6 °F 91% 30.11 in 7.0 mi SE 3.5 mph - N/A   Clear
2:35 AM 69.4 °F - 67.1 °F 92% 30.10 in 7.0 mi SSE 3.5 mph - N/A   Clear
2:55 AM 69.3 °F - 67.1 °F 93% 30.09 in 7.0 mi SSE 4.6 mph - N/A Thunderstorm Scattered Clouds
2:56 AM 69.3 °F - 67.1 °F 93% 30.09 in 7.0 mi SSE 3.5 mph - N/A Thunderstorm Scattered Clouds
3:15 AM 69.4 °F - 67.3 °F 93% 30.10 in 7.0 mi Calm Calm - N/A   Clear
3:16 AM 69.4 °F - 67.3 °F 93% 30.10 in 7.0 mi Calm Calm - N/A   Clear
3:35 AM 69.8 °F - 67.6 °F 93% 30.10 in 7.0 mi SSW 5.8 mph - N/A Rain , Thunderstorm Light Thunderstorms and Rain
3:55 AM 70.3 °F - 68.2 °F 93% 30.10 in 10.0 mi WSW 10.4 mph - N/A   Light Drizzle
4:15 AM 71.1 °F - 68.0 °F 90% 30.10 in 10.0 mi WSW 10.4 mph - N/A   Overcast
4:16 AM 71.1 °F - 68.0 °F 90% 30.11 in 10.0 mi WSW 12.7 mph - N/A   Overcast
4:35 AM 70.7 °F - 66.9 °F 88% 30.11 in 10.0 mi WSW 10.4 mph 17.3 mph N/A   Mostly Cloudy
4:55 AM 70.0 °F - 65.7 °F 86% 30.11 in 10.0 mi WNW 5.8 mph - N/A   Scattered Clouds
5:15 AM 69.3 °F - 65.5 °F 88% 30.11 in 10.0 mi West 4.6 mph - N/A   Clear
5:16 AM 69.3 °F - 65.5 °F 88% 30.11 in 10.0 mi West 5.8 mph - N/A   Clear
5:35 AM 68.9 °F - 65.3 °F 88% 30.11 in 10.0 mi NW 4.6 mph - N/A   Clear
5:36 AM 68.9 °F - 65.3 °F 88% 30.11 in 10.0 mi NW 4.6 mph - N/A   Clear
5:55 AM 68.4 °F - 65.3 °F 90% 30.12 in 10.0 mi Calm Calm - N/A   Clear
6:15 AM 67.8 °F - 64.8 °F 90% 30.13 in 10.0 mi Calm Calm - N/A   Clear
6:35 AM 67.5 °F - 64.9 °F 92% 30.14 in 10.0 mi Calm Calm - N/A   Scattered Clouds
6:55 AM 67.6 °F - 65.3 °F 92% 30.14 in 10.0 mi Calm Calm - N/A   Mostly Cloudy
7:15 AM 68.4 °F - 66.0 °F 92% 30.15 in 10.0 mi WNW 3.5 mph - N/A   Overcast
7:35 AM 68.9 °F - 65.5 °F 89% 30.17 in 10.0 mi WNW 3.5 mph - N/A   Overcast
7:36 AM 68.9 °F - 65.5 °F 89% 30.16 in 10.0 mi WNW 4.6 mph - N/A   Overcast
7:47 AM 69.8 °F - 66.2 °F 88% 30.17 in 10.0 mi NW 4.6 mph - N/A   Overcast
7:55 AM 69.3 °F - 65.5 °F 88% 30.17 in 10.0 mi WNW 5.8 mph - N/A   Mostly Cloudy
8:15 AM 70.0 °F - 65.1 °F 85% 30.17 in 10.0 mi WNW 6.9 mph - N/A   Mostly Cloudy
8:35 AM 71.1 °F - 65.5 °F 82% 30.17 in 10.0 mi WNW 4.6 mph - N/A   Scattered Clouds
8:36 AM 71.1 °F - 65.3 °F 82% 30.17 in 10.0 mi West 3.5 mph - N/A   Scattered Clouds
8:47 AM 71.6 °F - 66.2 °F 83% 30.17 in 10.0 mi West 6.9 mph - N/A   Clear
8:55 AM 72.7 °F - 65.8 °F 79% 30.17 in 10.0 mi West 4.6 mph - N/A   Clear
9:15 AM 73.4 °F - 65.7 °F 77% 30.18 in 10.0 mi West 5.8 mph - N/A   Clear
9:35 AM 75.0 °F - 66.2 °F 74% 30.18 in 10.0 mi WNW 3.5 mph - N/A   Clear
9:36 AM 75.0 °F - 66.2 °F 74% 30.18 in 10.0 mi WNW 3.5 mph - N/A   Clear
9:47 AM 75.2 °F - 66.2 °F 73% 30.18 in 10.0 mi West 4.6 mph - N/A   Clear
9:55 AM 76.8 °F - 66.9 °F 71% 30.18 in 10.0 mi Calm Calm - N/A   Clear
10:15 AM 77.2 °F - 66.4 °F 69% 30.18 in 10.0 mi NNW 4.6 mph - N/A   Clear
10:35 AM 76.3 °F - 66.2 °F 71% 30.18 in 10.0 mi NW 4.6 mph - N/A   Mostly Cloudy
10:36 AM 76.1 °F - 66.0 °F 71% 30.18 in 10.0 mi WNW 4.6 mph - N/A   Mostly Cloudy
10:47 AM 75.2 °F - 66.2 °F 73% 30.19 in 10.0 mi NW 3.5 mph - N/A   Overcast
10:55 AM 75.4 °F - 66.0 °F 73% 30.19 in 10.0 mi WNW 4.6 mph - N/A Rain Light Rain
11:15 AM 74.3 °F - 66.9 °F 78% 30.18 in 5.0 mi North 3.5 mph - N/A Rain Rain
11:35 AM 74.7 °F - 68.2 °F 80% 30.18 in 10.0 mi Calm Calm - N/A   Mostly Cloudy
11:47 AM 75.2 °F - 68.0 °F 78% 30.18 in 10.0 mi North 3.5 mph - N/A   Scattered Clouds
11:55 AM 75.4 °F - 68.2 °F 78% 30.18 in 10.0 mi Calm Calm - N/A   Mostly Cloudy
11:56 AM 75.6 °F - 68.4 °F 78% 30.18 in 10.0 mi Calm Calm - N/A   Mostly Cloudy
12:15 PM 81.1 °F 84.4 °F 69.4 °F 67% 30.17 in 10.0 mi West 4.6 mph - N/A   Scattered Clouds
12:16 PM 81.3 °F 84.5 °F 69.1 °F 66% 30.17 in 10.0 mi WSW 4.6 mph - N/A   Scattered Clouds
12:35 PM 81.9 °F 84.4 °F 67.3 °F 61% 30.17 in 10.0 mi West 5.8 mph - N/A   Scattered Clouds
12:36 PM 82.0 °F 84.7 °F 67.3 °F 61% 30.17 in 10.0 mi West 5.8 mph - N/A   Mostly Cloudy
12:47 PM 80.6 °F 82.7 °F 66.2 °F 61% 30.18 in 10.0 mi North 5.8 mph - N/A   Mostly Cloudy
12:55 PM 81.7 °F 84.2 °F 67.3 °F 61% 30.17 in 10.0 mi WSW 5.8 mph - N/A   Overcast
1:15 PM 81.5 °F 83.6 °F 66.0 °F 59% 30.18 in 10.0 mi NNW 5.8 mph - N/A   Overcast
1:35 PM 81.5 °F 83.7 °F 66.4 °F 60% 30.17 in 10.0 mi North 5.8 mph - N/A   Overcast
1:47 PM 80.6 °F 82.7 °F 66.2 °F 61% 30.17 in 10.0 mi North 5.8 mph - N/A   Overcast
1:55 PM 82.9 °F 85.2 °F 66.4 °F 57% 30.16 in 10.0 mi North 8.1 mph - N/A   Overcast
1:56 PM 82.9 °F 85.2 °F 66.4 °F 57% 30.16 in 10.0 mi North 8.1 mph - N/A   Overcast
2:15 PM 84.7 °F 87.1 °F 66.6 °F 54% 30.17 in 10.0 mi North 6.9 mph - N/A   Scattered Clouds
2:35 PM 83.1 °F 85.4 °F 66.2 °F 57% 30.17 in 10.0 mi NW 5.8 mph - N/A   Mostly Cloudy
2:47 PM 80.6 °F 83.2 °F 68.0 °F 65% 30.17 in 10.0 mi North 6.9 mph - N/A   Overcast
2:55 PM 81.5 °F 84.1 °F 67.3 °F 62% 30.17 in 10.0 mi NW 9.2 mph - N/A   Overcast
2:56 PM 81.5 °F 84.1 °F 67.3 °F 62% 30.17 in 10.0 mi NNW 6.9 mph - N/A   Mostly Cloudy
3:15 PM 83.5 °F 86.2 °F 67.3 °F 58% 30.16 in 10.0 mi North 3.5 mph - N/A   Scattered Clouds
3:35 PM 84.2 °F 86.8 °F 67.1 °F 56% 30.16 in 10.0 mi NNW 4.6 mph - N/A   Scattered Clouds
3:47 PM 82.4 °F 84.6 °F 66.2 °F 58% 30.16 in 10.0 mi NW 11.5 mph - N/A   Scattered Clouds
3:55 PM 82.8 °F 85.3 °F 66.9 °F 59% 30.16 in 10.0 mi NNW 5.8 mph 25.3 mph N/A   Clear
3:56 PM 82.9 °F 85.6 °F 67.1 °F 59% 30.16 in 10.0 mi NNW 8.1 mph 25.3 mph N/A   Clear
4:15 PM 83.5 °F 86.2 °F 67.1 °F 58% 30.16 in 10.0 mi North 5.8 mph 23.0 mph N/A   Clear
4:35 PM 83.8 °F 86.5 °F 67.1 °F 57% 30.16 in 10.0 mi NW 8.1 mph - N/A   Scattered Clouds
4:47 PM 84.2 °F 86.6 °F 66.2 °F 55% 30.16 in 10.0 mi NNW 9.2 mph 17.3 mph N/A   Scattered Clouds
4:55 PM 83.1 °F 84.8 °F 65.1 °F 54% 30.16 in 10.0 mi NW 9.2 mph 17.3 mph N/A   Clear
4:56 PM 82.9 °F 84.8 °F 65.1 °F 55% 30.16 in 10.0 mi NNW 8.1 mph 17.3 mph N/A   Scattered Clouds
5:15 PM 83.1 °F 85.0 °F 65.5 °F 55% 30.16 in 10.0 mi NNW 5.8 mph - N/A   Scattered Clouds
5:35 PM 81.3 °F 83.6 °F 66.9 °F 61% 30.15 in 10.0 mi North 5.8 mph - N/A   Scattered Clouds
5:47 PM 80.6 °F 82.7 °F 66.2 °F 61% 30.15 in 10.0 mi North 6.9 mph - N/A   Scattered Clouds
5:55 PM 81.1 °F 83.4 °F 66.7 °F 61% 30.15 in 10.0 mi North 4.6 mph - N/A   Scattered Clouds
5:56 PM 81.1 °F 83.5 °F 66.9 °F 62% 30.15 in 10.0 mi North 5.8 mph - N/A   Scattered Clouds
6:15 PM 79.5 °F - 66.9 °F 65% 30.16 in 10.0 mi North 4.6 mph - N/A   Scattered Clouds
6:16 PM 79.5 °F - 67.1 °F 66% 30.16 in 10.0 mi North 5.8 mph - N/A   Scattered Clouds
6:35 PM 78.4 °F - 66.7 °F 67% 30.16 in 10.0 mi North 8.1 mph - N/A   Clear
6:47 PM 78.8 °F - 66.2 °F 65% 30.17 in 10.0 mi North 8.1 mph - N/A   Clear
6:55 PM 77.4 °F - 66.9 °F 70% 30.17 in 10.0 mi North 8.1 mph - N/A   Clear
6:56 PM 77.2 °F - 66.7 °F 70% 30.17 in 10.0 mi North 9.2 mph - N/A   Clear
7:15 PM 76.1 °F - 67.3 °F 74% 30.17 in 10.0 mi North 6.9 mph - N/A   Clear
7:16 PM 76.1 °F - 67.3 °F 74% 30.17 in 10.0 mi North 6.9 mph - N/A   Clear
7:35 PM 74.7 °F - 67.5 °F 78% 30.18 in 10.0 mi North 5.8 mph - N/A   Clear
7:47 PM 73.4 °F - 68.0 °F 83% 30.18 in 10.0 mi North 6.9 mph - N/A   Clear
7:55 PM 73.8 °F - 66.7 °F 79% 30.18 in 10.0 mi North 4.6 mph - N/A   Clear
8:15 PM 72.5 °F - 66.2 °F 81% 30.19 in 10.0 mi North 5.8 mph - N/A   Clear
8:16 PM 72.5 °F - 66.2 °F 81% 30.19 in 10.0 mi North 5.8 mph - N/A   Clear
8:35 PM 72.0 °F - 65.8 °F 81% 30.19 in 10.0 mi North 4.6 mph - N/A   Clear
8:47 PM 71.6 °F - 66.2 °F 83% 30.19 in 10.0 mi North 4.6 mph - N/A   Clear
8:55 PM 71.2 °F - 65.8 °F 83% 30.20 in 10.0 mi NNE 4.6 mph - N/A   Clear
9:15 PM 70.9 °F - 65.5 °F 83% 30.20 in 10.0 mi NNE 4.6 mph - N/A   Clear
9:16 PM 70.9 °F - 65.5 °F 83% 30.20 in 10.0 mi NNE 5.8 mph - N/A   Clear
9:35 PM 70.2 °F - 65.5 °F 85% 30.20 in 10.0 mi NNE 3.5 mph - N/A   Clear
9:55 PM 69.8 °F - 65.5 °F 86% 30.21 in 10.0 mi NNE 3.5 mph - N/A   Clear
10:15 PM 69.4 °F - 65.3 °F 87% 30.21 in 10.0 mi NNE 3.5 mph - N/A   Clear
10:16 PM 69.4 °F - 65.3 °F 87% 30.21 in 10.0 mi NNE 3.5 mph - N/A   Clear
10:35 PM 69.1 °F - 65.3 °F 88% 30.21 in 10.0 mi NNE 3.5 mph - N/A   Clear
10:55 PM 68.9 °F - 65.3 °F 88% 30.21 in 10.0 mi Calm Calm - N/A   Clear
11:15 PM 68.0 °F - 64.8 °F 89% 30.22 in 10.0 mi NNE 3.5 mph - N/A   Scattered Clouds
11:16 PM 68.0 °F - 64.8 °F 89% 30.22 in 10.0 mi NNE 3.5 mph - N/A   Scattered Clouds
11:35 PM 68.0 °F - 64.8 °F 89% 30.21 in 10.0 mi Calm Calm - N/A   Scattered Clouds
11:36 PM 68.0 °F - 64.8 °F 89% 30.21 in 10.0 mi Calm Calm - N/A   Scattered Clouds
11:55 PM 68.2 °F - 64.8 °F 89% 30.22 in 10.0 mi Calm Calm - N/A   Mostly Cloudy